Regional Weather Roundup
Issued by NWS Burlington, VT

Current Version | Previous Version | Graphics & Text | Print | Product List | Glossary On
Versions: 1 2 3 4 5 6 7 8 9 10 11 12 13 14 15 16 17 18 19 20 21 22 23 24 25 26 27 28 29 30 31 32 33 34 35 36 37 38 39 40 41 42 43 44 45 46 47 48 49 50
706
ASUS41 KBTV 151610
RWRBTV
VERMONT REGIONAL WEATHER ROUNDUP
NATIONAL WEATHER SERVICE BURLINGTON VT
1200 PM EDT SUN SEP 15 2019

NOTE: "FAIR" INDICATES FEW OR NO CLOUDS BELOW 12,000 FEET WITH NO
SIGNIFICANT WEATHER AND/OR OBSTRUCTIONS TO VISIBILITY.

* THESE REPORTS ARE NOT UNDER NWS QUALITY CONTROL AND/OR DO NOT
  REPORT WEATHER SUCH AS PRECIPITATION AND FOG.

VTZ001>019-151700-
_____VERMONT_____


CITY           SKY/WX    TMP DP  RH WIND       PRES   REMARKS
BURLINGTON     PTSUNNY   69  47  45 VRB7      30.09F
MONTPELIER     PTSUNNY   65  49  56 VRB6      30.14F
MORRISVILLE    FAIR      66  48  52 SW13G20   30.10S
ST. JOHNSBURY*   N/A     67  45  45 MISG      30.07F
LYNDONVILLE*   FAIR      65  46  51 SW5       30.11S
RUTLAND*       PTSUNNY   68  52  56 W12       30.13F
SPRINGFIELD    FAIR      71  48  43 NW13      30.10F
HIGHGATE*      FAIR      68  51  54 W5        30.09S
NEWPORT*       FAIR      62  47  57 W14G20    30.10S
BENNINGTON     FAIR      69  56  62 NW8       30.15F
LAKE EDEN*       N/A     64 N/A N/A SW7         N/A

_____LAKE CHAMPLAIN_____


CITY           SKY/WX    TMP DP  RH WIND       PRES   REMARKS

$$

NYZ007-026>031-035-052-083-087-151700-
_____NORTHERN NEW YORK_____


CITY           SKY/WX    TMP DP  RH WIND       PRES   REMARKS
PLATTSBURGH    FAIR      70  46  42 W9G17     30.08F
SARANAC LAKE   FAIR      61  46  57 SW9       30.12F
MASSENA        FAIR      63  48  58 W14G21    30.12F
OGDENSBURG*    PTSUNNY   64  52  63 VRB7G14   30.10S
POTSDAM*       PTSUNNY   64  52  63 W9G16     30.12F
WATERTOWN      FAIR      67  58  72 W9        30.14F
FT DRUM        FAIR      66  53  63 W7        30.14S
ALBANY         PTSUNNY   72  55  55 W5        30.15F
GLENS FALLS    FAIR      70  53  54 W8        30.12F

$$
NHZ002-005-011-151700-
_____NEW HAMPSHIRE_____


CITY           SKY/WX    TMP DP  RH WIND       PRES   REMARKS
LEBANON        FAIR      72  51  47 W8        30.09F
KEENE          PTSUNNY   71  54  54 SW8G16    30.12F
PLYMOUTH       FAIR      69  50  49 W9        30.08F
WHITEFIELD     FAIR      66  46  48 W10G18    30.08F

$$

_____REGIONAL QUEBEC LOCATIONS_____


CITY           SKY/WX    TMP DP  RH WIND       PRES   REMARKS
MONTREAL       CLOUDY    63  46  55 W10G18    30.07F
QUEBEC CITY    PTSUNNY   63  52  67 SW16      30.00S
SHERBROOKE     CLOUDY    59  50  72 W10       30.07S

_____REGIONAL ONTARIO LOCATIONS_____


CITY           SKY/WX    TMP DP  RH WIND       PRES   REMARKS
OTTAWA         PTSUNNY   61  48  63 W12       30.12R

______KEY______
VSB  - VISIBILITY IN MILES
WCI  - WIND CHILL INDEX
HX   - HEAT INDEX
$$
NNNN




USA.gov is the U.S. government's official web portal to all federal, state and local government web resources and services.